NT9G Weather Reports


Display with metric or nautical units.
time (UTC)temp
F
wind
direction
speed
MPH
gust
MPH
rain 1hr
in
rain 24hr
in
rain mn
in
humidity
%
barometer
mb
20260504081846 49 0 0.0 0.0 0.00 0.00 0.00 71 1006.7
20260504081346 49 0 0.0 0.0 0.00 0.00 0.00 71 1006.6
20260504080846 49 0 0.0 0.0 0.00 0.00 0.00 69 1006.7
20260504080345 49 0 0.0 0.0 0.00 0.00 0.00 67 1006.7
20260504070342 49 0 0.0 0.0 0.00 0.00 0.00 63 1006.9
20260504050334 52 0 0.0 0.0 0.00 0.00 0.00 65 1008.3
20260504045834 52 0 0.0 0.0 0.00 0.00 0.00 66 1008.2
20260504045334 53 0 0.0 0.0 0.00 0.00 0.00 66 1008.2
20260504044834 53 0 0.0 0.0 0.00 0.00 0.00 64 1008.2
20260504044333 53 0 0.0 0.0 0.00 0.00 0.00 65 1008.2
20260504043833 53 0 0.0 0.0 0.00 0.00 0.00 65 1008.2
20260504043333 53 0 0.0 0.0 0.00 0.00 0.00 66 1008.2
20260504042833 53 0 0.0 0.0 0.00 0.00 0.00 64 1008.3
20260504042332 53 0 0.0 0.0 0.00 0.00 0.00 65 1008.4
20260504041832 53 0 0.0 0.0 0.00 0.00 0.00 64 1008.3
20260504041332 54 0 0.0 0.0 0.00 0.00 0.00 65 1008.4
20260504040831 54 0 0.0 0.0 0.00 0.00 0.00 65 1008.4
20260504040331 54 0 0.0 0.0 0.00 0.00 0.00 65 1008.4
20260504035828 54 0 0.0 0.0 0.00 0.00 0.00 64 1008.4
20260504035328 54 0 0.0 0.0 0.00 0.00 0.00 64 1008.4
20260504034327 55 0 0.0 0.0 0.00 0.00 0.00 63 1008.4
20260504033327 55 0 0.0 0.0 0.00 0.00 0.00 62 1008.5
20260504032827 55 0 0.0 0.0 0.00 0.00 0.00 62 1008.5
20260504032326 55 0 0.0 0.0 0.00 0.00 0.00 61 1008.5
20260504031826 56 0 0.0 0.0 0.00 0.00 0.00 61 1008.5
20260504031326 56 0 0.0 0.0 0.00 0.00 0.00 61 1008.5
20260504030825 56 0 0.0 0.0 0.00 0.00 0.00 60 1008.5
20260504030325 56 0 0.0 0.0 0.00 0.00 0.00 59 1008.5
20260504025825 57 0 0.0 0.0 0.00 0.00 0.00 59 1008.5
20260504025325 57 0 0.0 0.0 0.00 0.00 0.00 58 1008.4
20260504024824 57 0 0.0 0.0 0.00 0.00 0.00 57 1008.4
20260504023824 58 0 0.0 0.0 0.00 0.00 0.00 57 1008.4
20260504023323 58 0 0.0 0.0 0.00 0.00 0.00 56 1008.3
20260504022823 58 0 0.0 0.0 0.00 0.00 0.00 55 1008.4
20260504022323 59 0 0.0 0.0 0.00 0.00 0.00 54 1008.3
20260504021823 59 0 0.0 0.0 0.00 0.00 0.00 54 1008.3
20260504021322 59 0 0.0 0.0 0.00 0.00 0.00 53 1008.2
20260504020822 60 0 0.0 0.0 0.00 0.00 0.00 53 1008.2
20260504020322 59 0 0.0 0.0 0.00 0.00 0.00 52 1008.2
20260504015821 60 0 0.0 0.0 0.00 0.00 0.00 53 1008.2
20260504015321 60 0 0.0 0.0 0.00 0.00 0.00 52 1008.2
20260504014821 60 0 0.0 0.0 0.00 0.00 0.00 53 1008.2
20260504014321 60 0 0.0 0.0 0.00 0.00 0.00 53 1008.2
20260504013820 61 0 0.0 0.0 0.00 0.00 0.00 52 1008.2
20260504013320 62 0 0.0 0.0 0.00 0.00 0.00 51 1008.1
20260504012820 62 0 0.0 0.0 0.00 0.00 0.00 50 1008.1
20260504012320 63 0 0.0 0.0 0.00 0.00 0.00 49 1008.1
20260504011819 63 0 0.0 0.0 0.00 0.00 0.00 48 1008.0
20260504011318 63 0 0.0 0.0 0.00 0.00 0.00 48 1008.0
20260504010318 64 0 0.0 0.0 0.00 0.00 0.00 46 1008.0
20260504005818 65 0 0.0 0.0 0.00 0.00 0.00 45 1007.9
20260504005317 65 0 0.0 0.0 0.00 0.00 0.00 45 1007.9
20260504004817 66 0 0.0 0.0 0.00 0.00 0.00 44 1008.0
20260504004317 66 0 0.0 0.0 0.00 0.00 0.00 43 1008.0
20260504003816 66 0 0.0 0.0 0.00 0.00 0.00 43 1008.0
20260504003316 67 0 0.0 0.0 0.00 0.00 0.00 42 1008.0
20260504002816 67 0 0.0 0.0 0.00 0.00 0.00 42 1008.0
20260504001815 68 0 0.0 0.0 0.00 0.00 0.00 41 1007.9
20260504001315 68 0 0.0 0.0 0.00 0.00 0.00 40 1007.9
20260504000815 68 0 0.0 0.0 0.00 0.00 0.00 40 1008.0
20260504000314 69 0 0.0 0.0 0.00 0.00 0.00 39 1008.0
20260503235814 69 0 0.0 0.0 0.00 0.00 0.00 39 1008.1
20260503234814 69 0 0.0 0.0 0.00 0.00 0.00 38 1008.0
20260503190257 71 0 0.0 0.0 0.00 0.00 0.00 29 1010.3
20260503185757 71 0 0.0 0.0 0.00 0.00 0.00 30 1010.3
20260503184256 71 0 0.0 0.0 0.00 0.00 0.00 30 1010.6
20260503183256 70 0 0.0 0.0 0.00 0.00 0.00 31 1010.8
20260503182755 70 0 0.0 0.0 0.00 0.00 0.00 33 1010.9
20260503182255 69 0 0.0 0.0 0.00 0.00 0.00 32 1011.0
20260503181755 69 0 0.0 0.0 0.00 0.00 0.00 31 1011.2
20260503175754 67 0 0.0 0.0 0.00 0.00 0.00 34 1011.6
20260503175253 67 0 0.0 0.0 0.00 0.00 0.00 35 1011.7
20260503173752 65 0 0.0 0.0 0.00 0.00 0.00 38 1012.2
20260503173252 65 0 0.0 0.0 0.00 0.00 0.00 39 1012.2
20260503172752 64 0 0.0 0.0 0.00 0.00 0.00 38 1012.4
20260503172252 64 0 0.0 0.0 0.00 0.00 0.00 40 1012.8
20260503171751 63 0 0.0 0.0 0.00 0.00 0.00 41 1013.3
20260503171251 63 0 0.0 0.0 0.00 0.00 0.00 43 1013.4
20260503170751 62 0 0.0 0.0 0.00 0.00 0.00 41 1013.5
20260503170251 62 0 0.0 0.0 0.00 0.00 0.00 43 1013.8
20260503150744 58 0 0.0 0.0 0.00 0.00 0.00 50 1015.7
20260503150244 57 0 0.0 0.0 0.00 0.00 0.00 52 1015.7
20260503140240 53 0 0.0 0.0 0.00 0.00 0.00 56 1016.4
20260503131237 50 0 0.0 0.0 0.00 0.00 0.00 61 1017.2
20260503130237 49 0 0.0 0.0 0.00 0.00 0.00 61 1017.3
20260503110730 44 0 0.0 0.0 0.00 0.00 0.00 68 1016.8
20260503110230 44 0 0.0 0.0 0.00 0.00 0.00 68 1016.8
20260503100226 43 0 0.0 0.0 0.00 0.00 0.00 65 1017.0